sat.trackr.live / text

‹ back to catalog

STARLINK-5600

NORAD 57357 · 2023-099AF

PAYLOAD ACTIVE UNKNOWN

§ Identity

Operator
Country
US
Launch date
2023-07-16
Launch site
AFETR
Launch vehicle
Mass (kg)
RCS (m²)

Purposes: comms

External: N2YO · Heavens-Above · Gunter

§ Orbital elements

Epoch: 2026-05-25T01:51:57.434976Z

Period
94.27 min
Inclination
43.0031°
Eccentricity
0.0001273
Mean motion
15.27570590 rev/d
Perigee alt
482.2 km
Apogee alt
484.0 km
Semi-major
6,861.2 km
B*
8.1110e-5
RAAN
170.1264°
Arg perigee
266.2702°
Mean anomaly
93.8004°
Rev number
15,788

§ Raw data

STARLINK-56001 57357U 23099AF  26145.07774809  .00001970  00000+0  81110-4 0  99912 57357  43.0031 170.1264 0001273 266.2702  93.8004 15.27570590157883

JSON: /api/v1/satellites/57357 · /tle

For live sub-satellite position, see the globe view (requires WebGL).

§ Visibility from observer

Set your observer location to see the next 7 days of passes ≥ 10°. The values pass through the URL so the page stays shareable.

No JS? Fill the form by hand. The geolocation button needs JavaScript.